User: anonymous   Login
Location: Unspecified
(0.0000°N, 0.0000°E)
Time: 01:32:58
(UTC+00:00)
Language:

TABLETSAT AURORA - Orbit

View from above orbital plane
View from above orbital plane
View from above satellite
View from above satellite

Ground track
Ground track

The orbit data is extracted from the following two-line orbital elements,

1 40017U 14033H   17117.86350860 +.00000703 +00000-0 +73456-4 0  9995
2 40017 097.9445 037.9345 0024732 131.4572 228.8776 14.92734086155458
Epoch (UTC): 27 April 2017 20:43:27
Eccentricity: 0.0024732
inclination: 97.9445°
perigee height: 572 km
apogee height: 606 km
right ascension of ascending node: 37.9345°
argument of perigee: 131.4572°
revolutions per day: 14.92734086
mean anomaly at epoch: 228.8776°
orbit number at epoch: 15545

The dashed part of the orbit path shows where the satellite is in the earth's shadow,  

DLR